Regional Weather Roundup
Issued by NWS Cleveland, OH

Home | Current Version | Previous Version | Text Only | Print | Product List | Glossary Off
Versions: 1 2 3 4 5 6 7 8 9 10 11 12 13 14 15 16 17 18 19 20 21 22 23 24 25 26 27 28 29 30 31 32 33 34 35 36 37 38 39 40 41 42 43 44 45 46 47 48 49 50

580
ASUS41 KCLE 201810
RWRCLE
OHIO REGIONAL WEATHER ROUNDUP
NATIONAL WEATHER SERVICE CLEVELAND, OH
200 PM EDT WED SEP 20 2017

NOTE: "FAIR" INDICATES FEW OR NO CLOUDS BELOW 12,000 FEET WITH NO
SIGNIFICANT WEATHER AND/OR OBSTRUCTIONS TO VISIBILITY.

OHZ001>008-015>018-024>027-034-035-043-044-201900-
   NORTHWEST OHIO

CITY           SKY/WX    TMP DP  RH WIND       PRES   REMARKS
DEFIANCE       PTSUNNY   78  68  71 CALM      30.00F
FINDLAY        MOSUNNY   82  67  60 S7        29.99F
TOLEDO EXPRESS MOSUNNY   81  70  69 SW8       29.99F
TOLEDO EXEC    PTSUNNY   81  66  60 CALM      30.00F
LIMA           PTSUNNY   82  69  64 VRB5      30.01F
$$

OHZ009>014-019>023-028>033-038-089-201900-
   NORTHEAST OHIO

CITY           SKY/WX    TMP DP  RH WIND       PRES   REMARKS
CLE-HOPKINS    MOSUNNY   86  62  44 VRB5      30.02F
CLE-LAKEFRONT  SUNNY     79  67  66 N7        30.00F
CUY CO. ARPT   PTSUNNY   84  63  48 E5        30.03F
LORAIN-ELYRIA  MOSUNNY   82  61  48 CALM      30.01F
ASHTABULA      MOSUNNY   81  66  60 VRB3      30.03F
AKRON-CANTON   PTSUNNY   81  62  52 SW3       30.03F
WOOSTER        MOSUNNY   81  65  58 CALM      30.03F
MANSFIELD      MOSUNNY   82  65  56 CALM      30.04F
YOUNGSTOWN     PTSUNNY   79  64  60 NW3       30.03F
$$

OHZ042-051>053-060>062-070>072-077>081-201900-
  SOUTHWEST OHIO

CITY           SKY/WX    TMP DP  RH WIND       PRES   REMARKS
CINC-COVINGTON PTSUNNY   83  71  67 S9        30.03F
CINC-LUNKEN    MOSUNNY   83  72  69 S9        30.02F
HAMILTON       MOSUNNY   84  70  62 CALM      30.02F
DAYTON         PTSUNNY   81  67  62 CALM      30.03F
WRIGHT-PAT AFB PTSUNNY   82  69  65 SW5       30.02F
DAYTON GENERAL PTSUNNY   81  67  62 SW5       30.02F
WILMINGTON     SUNNY     82  69  64 W5        30.03F
$$

OHZ036-037-039>041-045>050-054>059-063>069-073>076-082>088-201900-
  CENTRAL AND SOUTHEAST OHIO

CITY           SKY/WX    TMP DP  RH WIND       PRES   REMARKS
COLUMBUS       PTSUNNY   82  67  60 S5        30.01F
OSU AIRPORT    MOSUNNY   80  66  62 CALM      30.02F
BOLTON FIELD   MOSUNNY   81  66  61 S3        30.03F
RICKENBACK AFB MOSUNNY   81  65  58 W5        30.01F
NEWARK         MOSUNNY   80  65  59 SW3       30.02F
MARION         PTSUNNY   81  64  56 S6        30.02F
LANCASTER      PTSUNNY   82  67  60 MISG      30.03F
ZANESVILLE     MOSUNNY   74  69  85 CALM      30.03F
NEW PHILLY     NOT AVBL
$$




USA.gov is the U.S. government's official web portal to all federal, state and local government web resources and services.